Simultaneous Nadir Overpasses (SNOs) Predictions

Prediction of SNOs between GOES-14 and NOAA-20 Satellite Orbit:

Table of predicted SNOs for the next 14.0 days since TLE Epoch: 3/2/2024
Index Date Time (GOES-14) GOES-14 Lat,Lon NOAA-20 Lat,Lon Distance(km) Time Diff (sec)
1 03/02/2024 20:36:36 -0.07,-108.40 0.13,-107.49 103.92 80
2 03/04/2024 08:58:23 0.09,-108.38 1.04,-112.75 497.86 80
3 03/05/2024 08:36:57 0.08,-108.38 0.06,-108.21 18.62 80
4 03/07/2024 20:40:09 -0.09,-108.40 -0.20,-108.99 66.59 80
5 03/08/2024 20:24:04 -0.09,-108.40 0.79,-104.45 450.25 80
6 03/10/2024 08:45:51 0.10,-108.38 0.37,-109.72 151.35 80
7 03/11/2024 08:24:26 0.09,-108.38 -0.62,-105.18 365.21 80
8 03/12/2024 20:46:22 -0.10,-108.40 -0.54,-110.48 236.48 80
9 03/13/2024 20:30:16 -0.10,-108.40 0.45,-105.94 280.38 80
10 03/15/2024 08:52:04 0.11,-108.39 0.71,-111.21 320.83 80
